| time (UTC) | temp F | wind direction | speed MPH | gust MPH | rain 1hr in | rain 24hr in | rain mn in | humidity % | barometer mb |
| 20260905022720 | 69 | 0.0 | 0.0 | 0.00 | 0.12 | 0.12 | 99 | 1014.4 | |
| 20260905021720 | 69 | 0.0 | 0.0 | 0.00 | 0.12 | 0.12 | 99 | 1014.8 | |
| 20260905020720 | 69 | 0.0 | 0.0 | 0.00 | 0.12 | 0.12 | 99 | 1014.4 | |
| 20260905015720 | 69 | 0.0 | 0.0 | 0.00 | 0.12 | 0.12 | 99 | 1014.4 | |
| 20260905014720 | 70 | 0.0 | 0.0 | 0.00 | 0.12 | 0.12 | 99 | 1014.8 | |
| 20260905013720 | 70 | 0.0 | 0.0 | 0.00 | 0.12 | 0.12 | 99 | 1014.5 | |
| 20260905012720 | 70 | 0.0 | 0.0 | 0.00 | 0.12 | 0.12 | 99 | 1014.5 | |
| 20260905011720 | 70 | 0.0 | 0.0 | 0.00 | 0.12 | 0.12 | 99 | 1014.5 | |
| 20260905010720 | 71 | 0.0 | 0.0 | 0.00 | 0.12 | 0.12 | 99 | 1014.1 | |
| 20260905005720 | 71 | 0.0 | 0.0 | 0.00 | 0.12 | 0.12 | 99 | 1014.4 | |
| 20260905004720 | 71 | 0.0 | 0.0 | 0.00 | 0.12 | 0.12 | 99 | 1014.1 | |
| 20260905003720 | 71 | 0.0 | 0.0 | 0.00 | 0.12 | 0.12 | 99 | 1014.4 | |
| 20260905002721 | 71 | 0.0 | 0.0 | 0.00 | 0.12 | 0.12 | 99 | 1014.4 | |
| 20260905001720 | 71 | 0.0 | 0.0 | 0.00 | 0.12 | 0.12 | 99 | 1014.4 | |
| 20260905000741 | 71 | 0.0 | 0.0 | 0.00 | 0.13 | 0.12 | 99 | 1014.4 | |
| 20260904235740 | 71 | 0.0 | 0.0 | 0.00 | 0.14 | 0.12 | 99 | 1015.1 | |
| 20260904234740 | 72 | 0.0 | 0.0 | 0.00 | 0.18 | 0.12 | 99 | 1014.8 | |
| 20260904233720 | 72 | 0.0 | 0.0 | 0.00 | 0.21 | 0.12 | 97 | 1014.8 | |
| 20260904232720 | 73 | 0.0 | 0.0 | 0.00 | 0.25 | 0.12 | 96 | 1014.8 | |
| 20260904231740 | 73 | 0.0 | 0.0 | 0.00 | 0.29 | 0.12 | 94 | 1014.8 | |
| 20260904230719 | 74 | 0.0 | 0.0 | 0.00 | 0.32 | 0.12 | 93 | 1014.8 | |
| 20260904225719 | 74 | 344 | 2.0 | 2.0 | 0.00 | 0.34 | 0.12 | 91 | 1014.5 |
| 20260904224720 | 75 | 340 | 0.0 | 2.0 | 0.00 | 0.39 | 0.12 | 88 | 1014.8 |
| 20260904223720 | 75 | 340 | 4.0 | 5.0 | 0.00 | 0.54 | 0.12 | 86 | 1014.5 |
| 20260904222739 | 75 | 317 | 4.0 | 5.0 | 0.00 | 0.59 | 0.12 | 85 | 1014.5 |
| 20260904221719 | 76 | 337 | 5.0 | 7.0 | 0.00 | 0.61 | 0.12 | 84 | 1014.2 |
| 20260904220719 | 76 | 304 | 5.0 | 6.0 | 0.00 | 0.61 | 0.12 | 84 | 1014.2 |
| 20260904215719 | 76 | 328 | 6.0 | 8.0 | 0.00 | 0.61 | 0.12 | 83 | 1013.9 |
| 20260904214720 | 77 | 328 | 3.0 | 5.0 | 0.00 | 0.61 | 0.12 | 87 | 1013.6 |
| 20260904213720 | 77 | 348 | 3.0 | 4.0 | 0.00 | 0.61 | 0.12 | 85 | 1013.6 |
| 20260904212719 | 78 | 312 | 2.0 | 2.0 | 0.00 | 0.61 | 0.12 | 84 | 1013.2 |
| 20260904211720 | 77 | 295 | 3.0 | 4.0 | 0.00 | 0.61 | 0.12 | 84 | 1013.2 |
| 20260904210719 | 77 | 295 | 3.0 | 4.0 | 0.00 | 0.61 | 0.12 | 84 | 1013.3 |
| 20260904205724 | 78 | 313 | 4.0 | 5.0 | 0.00 | 0.61 | 0.12 | 81 | 1013.3 |
| 20260904204719 | 77 | 0.0 | 0.0 | 0.00 | 0.61 | 0.12 | 83 | 1013.6 | |
| 20260904203719 | 77 | 295 | 4.0 | 5.0 | 0.00 | 0.61 | 0.12 | 83 | 1013.6 |
| 20260904202719 | 78 | 293 | 2.0 | 2.0 | 0.00 | 0.65 | 0.12 | 84 | 1013.6 |
| 20260904201720 | 78 | 289 | 5.0 | 6.0 | 0.00 | 0.68 | 0.12 | 81 | 1014.0 |
| 20260904200719 | 78 | 175 | 2.0 | 5.0 | 0.00 | 0.68 | 0.12 | 86 | 1013.6 |
| 20260904195719 | 77 | 287 | 5.0 | 7.0 | 0.00 | 0.68 | 0.12 | 85 | 1014.3 |
| 20260904194739 | 77 | 0.0 | 0.0 | 0.00 | 0.68 | 0.12 | 85 | 1014.3 | |
| 20260904193720 | 77 | 194 | 2.0 | 2.0 | 0.00 | 0.68 | 0.12 | 89 | 1014.6 |
| 20260904192720 | 76 | 0.0 | 0.0 | 0.00 | 0.68 | 0.12 | 92 | 1014.3 | |
| 20260904191719 | 77 | 182 | 2.0 | 2.0 | 0.00 | 0.68 | 0.12 | 90 | 1014.6 |
| 20260904190719 | 76 | 117 | 1.0 | 3.0 | 0.00 | 0.68 | 0.12 | 89 | 1014.6 |
| 20260904185719 | 77 | 197 | 0.0 | 2.0 | 0.00 | 0.68 | 0.12 | 88 | 1014.6 |
| 20260904184720 | 76 | 203 | 1.0 | 2.0 | 0.00 | 0.68 | 0.12 | 91 | 1014.6 |
| 20260904183719 | 76 | 207 | 2.0 | 2.0 | 0.01 | 0.68 | 0.12 | 91 | 1014.9 |
| 20260904182719 | 75 | 190 | 1.0 | 2.0 | 0.01 | 0.68 | 0.12 | 94 | 1015.2 |
| 20260904181720 | 75 | 157 | 2.0 | 3.0 | 0.01 | 0.68 | 0.12 | 94 | 1015.2 |
| 20260904175720 | 74 | 155 | 3.0 | 4.0 | 0.02 | 0.68 | 0.12 | 98 | 1015.9 |
| 20260904174720 | 73 | 0.0 | 0.0 | 0.02 | 0.68 | 0.12 | 99 | 1016.2 | |
| 20260904173720 | 73 | 281 | 0.0 | 2.0 | 0.02 | 0.67 | 0.11 | 99 | 1016.5 |
| 20260904172719 | 73 | 0.0 | 0.0 | 0.03 | 0.67 | 0.11 | 98 | 1016.2 | |
| 20260904171720 | 73 | 357 | 3.0 | 4.0 | 0.03 | 0.67 | 0.11 | 99 | 1016.2 |
| 20260904170720 | 73 | 327 | 4.0 | 4.0 | 0.03 | 0.67 | 0.11 | 99 | 1016.5 |
| 20260904165720 | 73 | 309 | 4.0 | 5.0 | 0.02 | 0.66 | 0.10 | 99 | 1016.5 |
| 20260904164740 | 73 | 293 | 4.0 | 5.0 | 0.04 | 0.66 | 0.10 | 98 | 1016.9 |
| 20260904163720 | 73 | 284 | 2.0 | 2.0 | 0.05 | 0.65 | 0.09 | 99 | 1016.9 |
| 20260904162719 | 73 | 285 | 4.0 | 4.0 | 0.08 | 0.64 | 0.08 | 99 | 1016.9 |
| 20260904161719 | 74 | 0.0 | 0.0 | 0.08 | 0.64 | 0.08 | 99 | 1016.9 | |
| 20260904160719 | 74 | 0.0 | 0.0 | 0.08 | 0.64 | 0.08 | 97 | 1016.6 | |
| 20260904155720 | 73 | 0.0 | 0.0 | 0.08 | 0.64 | 0.08 | 98 | 1016.5 | |
| 20260904154740 | 73 | 0.0 | 0.0 | 0.06 | 0.62 | 0.06 | 99 | 1016.5 | |
| 20260904153721 | 73 | 0.0 | 0.0 | 0.03 | 0.59 | 0.03 | 99 | 1016.5 | |
| 20260904152720 | 73 | 0.0 | 0.0 | 0.00 | 0.56 | 0.00 | 98 | 1016.9 | |
| 20260904151720 | 74 | 0.0 | 0.0 | 0.00 | 0.56 | 0.00 | 97 | 1016.9 | |
| 20260904150721 | 73 | 0.0 | 0.0 | 0.00 | 0.56 | 0.00 | 97 | 1016.9 | |
| 20260904145721 | 72 | 0.0 | 0.0 | 0.00 | 0.56 | 0.00 | 99 | 1016.9 | |
| 20260904144721 | 72 | 0.0 | 0.0 | 0.00 | 0.56 | 0.00 | 99 | 1016.9 | |
| 20260904143721 | 72 | 0.0 | 0.0 | 0.00 | 0.56 | 0.00 | 99 | 1017.5 | |
| 20260904142721 | 72 | 0.0 | 0.0 | 0.00 | 0.56 | 0.00 | 99 | 1016.9 | |
| 20260904141721 | 72 | 0.0 | 0.0 | 0.00 | 0.56 | 0.00 | 99 | 1016.5 | |
| 20260904140721 | 72 | 0.0 | 0.0 | 0.00 | 0.56 | 0.00 | 99 | 1016.2 | |
| 20260904135721 | 72 | 0.0 | 0.0 | 0.00 | 0.56 | 0.00 | 99 | 1016.2 | |
| 20260904134741 | 72 | 0.0 | 0.0 | 0.00 | 0.56 | 0.00 | 99 | 1015.9 | |
| 20260904133721 | 72 | 0.0 | 0.0 | 0.00 | 0.56 | 0.00 | 99 | 1015.5 | |
| 20260904132721 | 72 | 0.0 | 0.0 | 0.00 | 0.56 | 0.00 | 99 | 1015.9 | |
| 20260904131721 | 72 | 0.0 | 0.0 | 0.00 | 0.56 | 0.00 | 99 | 1016.2 | |
| 20260904130720 | 71 | 0.0 | 0.0 | 0.00 | 0.56 | 0.00 | 99 | 1016.2 | |
| 20260904125741 | 71 | 0.0 | 0.0 | 0.00 | 0.56 | 0.00 | 99 | 1016.1 | |
| 20260904124721 | 70 | 0.0 | 0.0 | 0.00 | 0.56 | 0.00 | 99 | 1016.1 | |
| 20260904123720 | 70 | 0.0 | 0.0 | 0.00 | 0.56 | 0.00 | 99 | 1016.1 | |
| 20260904122740 | 70 | 0.0 | 0.0 | 0.00 | 0.56 | 0.00 | 99 | 1016.1 | |
| 20260904121720 | 69 | 0.0 | 0.0 | 0.00 | 0.56 | 0.00 | 99 | 1016.1 | |
| 20260904120720 | 69 | 0.0 | 0.0 | 0.00 | 0.56 | 0.00 | 99 | 1015.7 | |
| 20260904115720 | 69 | 0.0 | 0.0 | 0.00 | 0.56 | 0.00 | 99 | 1015.7 | |
| 20260904114741 | 69 | 0.0 | 0.0 | 0.00 | 0.56 | 0.00 | 99 | 1016.0 | |
| 20260904113720 | 69 | 0.0 | 0.0 | 0.00 | 0.56 | 0.00 | 99 | 1015.7 | |
| 20260904112720 | 68 | 0.0 | 0.0 | 0.00 | 0.56 | 0.00 | 99 | 1016.0 | |
| 20260904111720 | 68 | 0.0 | 0.0 | 0.00 | 0.56 | 0.00 | 99 | 1015.7 | |
| 20260904110720 | 68 | 0.0 | 0.0 | 0.00 | 0.56 | 0.00 | 99 | 1015.7 | |
| 20260904105720 | 68 | 0.0 | 0.0 | 0.00 | 0.56 | 0.00 | 99 | 1015.4 | |
| 20260904104741 | 67 | 0.0 | 0.0 | 0.00 | 0.56 | 0.00 | 99 | 1015.0 | |
| 20260904103720 | 67 | 0.0 | 0.0 | 0.00 | 0.56 | 0.00 | 99 | 1015.0 | |
| 20260904102720 | 68 | 0.0 | 0.0 | 0.00 | 0.56 | 0.00 | 99 | 1015.2 | |
| 20260904101720 | 67 | 0.0 | 0.0 | 0.00 | 0.56 | 0.00 | 99 | 1015.1 | |
| 20260904100720 | 68 | 0.0 | 0.0 | 0.00 | 0.56 | 0.00 | 99 | 1015.2 | |
| 20260904095720 | 68 | 0.0 | 0.0 | 0.00 | 0.56 | 0.00 | 99 | 1015.5 | |
| 20260904094740 | 68 | 0.0 | 0.0 | 0.00 | 0.56 | 0.00 | 99 | 1015.5 | |
| 20260904093720 | 68 | 0.0 | 0.0 | 0.00 | 0.56 | 0.00 | 99 | 1015.5 | |
| 20260904092740 | 68 | 0.0 | 0.0 | 0.00 | 0.56 | 0.00 | 99 | 1015.5 | |
| 20260904091721 | 69 | 0.0 | 0.0 | 0.00 | 0.56 | 0.00 | 99 | 1015.5 | |
| 20260904090720 | 69 | 0.0 | 0.0 | 0.00 | 0.56 | 0.00 | 99 | 1015.2 | |
| 20260904085740 | 69 | 0.0 | 0.0 | 0.00 | 0.56 | 0.00 | 99 | 1015.6 | |
| 20260904084720 | 69 | 0.0 | 0.0 | 0.00 | 0.56 | 0.00 | 99 | 1015.3 | |
| 20260904083740 | 69 | 0.0 | 0.0 | 0.00 | 0.56 | 0.00 | 99 | 1015.3 | |
| 20260904082720 | 69 | 0.0 | 0.0 | 0.00 | 0.56 | 0.00 | 99 | 1015.7 | |
| 20260904081721 | 69 | 0.0 | 0.0 | 0.00 | 0.56 | 0.00 | 99 | 1015.7 | |
| 20260904080720 | 69 | 0.0 | 0.0 | 0.00 | 0.56 | 0.00 | 99 | 1015.7 | |
| 20260904075720 | 69 | 0.0 | 0.0 | 0.00 | 0.56 | 0.00 | 99 | 1015.7 | |
| 20260904074720 | 69 | 0.0 | 0.0 | 0.00 | 0.56 | 0.00 | 99 | 1015.7 | |
| 20260904073720 | 69 | 0.0 | 0.0 | 0.00 | 0.56 | 0.00 | 99 | 1015.7 | |
| 20260904072720 | 69 | 0.0 | 0.0 | 0.00 | 0.56 | 0.00 | 99 | 1015.8 | |
| 20260904071720 | 69 | 0.0 | 0.0 | 0.00 | 0.56 | 0.00 | 99 | 1015.8 | |
| 20260904070740 | 69 | 0.0 | 0.0 | 0.00 | 0.56 | 0.00 | 99 | 1015.8 | |
| 20260904065741 | 69 | 0.0 | 0.0 | 0.00 | 0.56 | 0.00 | 99 | 1016.1 | |
| 20260904064720 | 69 | 0.0 | 0.0 | 0.00 | 0.56 | 0.00 | 99 | 1016.1 | |
| 20260904063720 | 69 | 0.0 | 0.0 | 0.00 | 0.56 | 0.00 | 99 | 1016.1 | |
| 20260904062742 | 69 | 0.0 | 0.0 | 0.00 | 0.56 | 0.00 | 99 | 1016.1 | |
| 20260904061740 | 68 | 0.0 | 0.0 | 0.00 | 0.56 | 0.00 | 99 | 1016.4 | |
| 20260904060720 | 69 | 0.0 | 0.0 | 0.00 | 0.56 | 0.00 | 99 | 1016.1 | |
| 20260904055740 | 69 | 0.0 | 0.0 | 0.00 | 0.56 | 0.00 | 99 | 1016.1 | |
| 20260904054720 | 69 | 0.0 | 0.0 | 0.00 | 0.56 | 0.00 | 99 | 1015.8 | |
| 20260904053721 | 69 | 0.0 | 0.0 | 0.00 | 0.72 | 0.00 | 99 | 1015.8 | |
| 20260904052720 | 69 | 0.0 | 0.0 | 0.00 | 0.75 | 0.00 | 99 | 1015.4 | |
| 20260904051741 | 69 | 0.0 | 0.0 | 0.00 | 0.75 | 0.00 | 99 | 1015.4 | |
| 20260904050740 | 69 | 0.0 | 0.0 | 0.00 | 0.75 | 0.00 | 99 | 1016.1 | |
| 20260904045720 | 69 | 0.0 | 0.0 | 0.00 | 0.75 | 0.00 | 99 | 1015.8 | |
| 20260904044801 | 69 | 0.0 | 0.0 | 0.00 | 0.75 | 0.00 | 99 | 1016.1 | |
| 20260904043741 | 69 | 0.0 | 0.0 | 0.00 | 0.75 | 0.00 | 99 | 1015.8 | |
| 20260904042720 | 69 | 0.0 | 0.0 | 0.00 | 0.75 | 0.00 | 99 | 1015.7 | |
| 20260904041720 | 70 | 0.0 | 0.0 | 0.00 | 0.75 | 0.00 | 99 | 1015.4 | |
| 20260904040720 | 70 | 0.0 | 0.0 | 0.00 | 0.75 | 0.00 | 99 | 1015.4 | |
| 20260904035719 | 70 | 0.0 | 0.0 | 0.00 | 0.75 | 0.75 | 99 | 1015.4 | |
| 20260904034739 | 70 | 0.0 | 0.0 | 0.00 | 0.75 | 0.75 | 99 | 1015.4 | |
| 20260904033719 | 70 | 0.0 | 0.0 | 0.00 | 0.75 | 0.75 | 99 | 1015.4 | |
| 20260904032719 | 70 | 0.0 | 0.0 | 0.00 | 0.75 | 0.75 | 99 | 1015.3 | |
| 20260904031719 | 70 | 0.0 | 0.0 | 0.00 | 0.75 | 0.75 | 99 | 1015.3 | |
| 20260904030719 | 70 | 0.0 | 0.0 | 0.00 | 0.75 | 0.75 | 99 | 1015.3 | |
| 20260904025719 | 70 | 0.0 | 0.0 | 0.00 | 0.75 | 0.75 | 99 | 1014.9 | |
| 20260904024719 | 70 | 0.0 | 0.0 | 0.00 | 0.75 | 0.75 | 99 | 1014.9 | |
| 20260904023719 | 70 | 0.0 | 0.0 | 0.00 | 0.75 | 0.75 | 99 | 1014.9 |